Miscellaneous Local Product
Issued by NWS Hastings, NE

Home | Current Version | Previous Version | Graphics & Text | Print | Product List | Glossary On
Versions: 1 2 3 4 5 6 7 8 9 10 11 12 13 14 15 16 17 18 19 20 21 22 23 24 25 26 27 28 29 30 31 32 33 34 35 36 37 38 39 40 41 42 43 44 45 46 47 48 49 50
000
AXUS43 KGID 061002
MISGRI

GID CWA HOURLY WEATHER ROUNDUP
NATIONAL WEATHER SERVICE HASTINGS NE
400 AM CST FRI MAR 06 2015

NOTE: "FAIR" INDICATES FEW OR NO CLOUDS BELOW 12,000 FEET WITH NO
SIGNIFICANT WEATHER AND/OR OBSTRUCTIONS TO VISIBILITY.

...SOUTH CENTRAL NEBRASKA...

CITY           SKY/WX    TMP DP  RH WIND       PRES   REMARKS
GRAND ISLAND   CLEAR     24  11  57 W9        30.19F WCI  14
HASTINGS       CLEAR     26  12  55 SW5       30.19F WCI  20
KEARNEY        CLEAR     28  12  50 W9        30.20S WCI  20
ORD            CLEAR     13   6  74 NW3       30.16F
YORK           CLEAR     21  12  68 W9        30.18F WCI  11
AURORA         CLEAR     24  12  60 W9        30.18F WCI  15
LEXINGTON      CLEAR     20  13  76 W9        30.21S WCI   9
HOLDREGE       CLEAR     25  13  59 W9        30.20F WCI  16
HEBRON         CLEAR     28  13  54 W6        30.22S WCI  21

...NEBRASKA PANHANDLE...

CITY           SKY/WX    TMP DP  RH WIND       PRES   REMARKS
CHADRON        CLOUDY    33  23  66 W8        30.18F WCI  26
ALLIANCE       MOCLDY    21  17  84 N6        30.18F WCI  13
SCOTTSBLUFF    CLOUDY    30  22  72 CALM      30.21F
SIDNEY         MOCLDY    32  18  56 W12       30.21F WCI  23

...WESTERN AND NORTH CENTRAL NEBRASKA...

CITY           SKY/WX    TMP DP  RH WIND       PRES   REMARKS
VALENTINE      CLEAR     24  19  81 W8        30.14F WCI  15
AINSWORTH      PTCLDY    26  19  76 SW10      30.13F WCI  16
ONEILL         CLEAR     25  19  76 W8        30.14S WCI  16
BROKEN BOW     PTCLDY    26  14  60 VRB3      30.17F
IMPERIAL         N/A     27  17  66 W14       30.22F WCI  16
NORTH PLATTE   CLEAR     15  11  83 NW6       30.21S WCI   6
MCCOOK         CLEAR     26  17  68 W13       30.23F WCI  15

...EASTERN NEBRASKA...

CITY           SKY/WX    TMP DP  RH WIND       PRES   REMARKS
NORFOLK        CLEAR     20   8  60 W6        30.14S WCI  12
SO SIOUX CITY  CLEAR     18   9  68 SE7       30.15F WCI   9
TEKAMAH        CLEAR     20  10  65 S12       30.17F WCI   8
COLUMBUS       CLEAR     21   5  49 SW6       30.17F WCI  14
ALBION         CLEAR     25  10  54 NW3       30.15S
OMAHA EPPLEY   CLEAR     22  13  68 S12       30.20F WCI  10
OFFUTT AFB     CLEAR     18  12  75 SE5       30.19F WCI  11
MILLARD        CLEAR     23  14  68 CALM      30.20F
LINCOLN        CLEAR     23  14  68 S3        30.21F
NEBRASKA CITY  CLEAR     24  13  62 SW14      30.20F WCI  12
BEATRICE       CLEAR     27  18  68 SW9       30.22S WCI  18
FALLS CITY     CLEAR     26  16  65 S14       30.24F WCI  14

...NORTHERN KANSAS...

CITY           SKY/WX    TMP DP  RH WIND       PRES   REMARKS
GOODLAND       CLEAR     25  21  85 W7        30.25F WCI  17
HILL CITY      CLEAR     27  16  63 W7        30.25F WCI  19
NORTON         SUNNY     25  14  63 W9        30.22  WCI  15
PHILLIPSBURG   CLEAR     27  18  69 W6        30.24F WCI  20
SMITH CENTER   CLEAR     21  12  68 SW6       30.25F WCI  14
BELOIT         CLEAR     27  14  59 S5        30.25F WCI  21
HAYS           CLEAR     27  10  50 CALM      30.27S
RUSSELL        CLEAR     25  16  68 SW9       30.26F WCI  15
CONCORDIA      CLEAR     30  18  60 SW17      30.24F WCI  18
SALINA         CLEAR     30  21  69 S10       30.30F WCI  21
TOPEKA         CLEAR     29  18  63 S9G17     30.32F WCI  20



USA.gov is the U.S. government's official web portal to all federal, state and local government web resources and services.